Notices

What's New in latest Release from April 7th, 2021:

- Updated Glossary, including Speed of Maximum Gust, and Total Hourly Precipitation

- Updated national and regional climate services offices contacts and prices information

- Addition of station inventory lists for 1981-2010, 1971-2000, and 1961-1990 Normals.

If you haven't already, please take our survey and provide feedback about our website: https://eccc.sondage-survey.ca/f/LanguageSelection.aspx?s=442ca660-fcf1-47c0-95a9-59707d6fd709

Hourly Data Report for October 21, 2015

IQALUIT CLIMATE
NUNAVUT

63°44'50.000" N
68°32'40.000" W
33.50 m
2402592
71321
XFB

Download Data

Hourly Data (October 2015)
Hourly Data Report for October 21, 2015
TIME
LST
Temp Definition
°C
Dew Point Definition
°C
Rel Hum Definition
%
Precip. Amount Definition
mm

Wind Dir Definition
10's deg

Wind Spd Definition
km/h
Visibility Definition
km
Stn Press Definition
kPa
Hmdx Definition


Wind Chill Definition


Weather Definition


00:00 -4.7 -8.8 73 0.0 30 12   100.84   -9 LegendNANA
01:00 -5.0 -9.1 73 0.0 31 9   100.90   -9 LegendNANA
02:00 -6.4 -10.1 75 0.0 33 5   100.97   -9 LegendNANA
03:00 -7.2 -10.3 79 0.0 35 11   101.03   -12 LegendNANA
04:00 -8.2 -10.5 83 0.0 33 13   101.09   -14 LegendNANA
05:00 -8.5 -10.6 85 0.0 33 18   101.14   -16 LegendNANA
06:00 -9.1 -11.1 86 0.0 33 14   101.21   -15 LegendNANA
07:00 -8.9 -11.0 85 0.0 33 17   101.25   -16 LegendNANA
08:00 -7.9 -10.0 85 0.0 32 19   101.27   -15 LegendNANA
09:00 -7.0 -9.4 83 0.0 33 19   101.28   -14 LegendNANA
10:00 -6.7 -10.1 77 0.0 34 25   101.28   -15 LegendNANA
11:00 -6.0 -9.8 74 0.0 34 21   101.30   -13 LegendNANA
12:00 -6.3 -10.1 74 0.0 33 19   101.32   -13 LegendNANA
13:00 -6.3 -10.1 75 0.0 33 23   101.32   -14 LegendNANA
14:00 -6.3 -10.0 75 0.0 33 21   101.34   -13 LegendNANA
15:00 -7.6 -10.9 77 0.0 34 14   101.37   -14 LegendNANA
16:00 -7.3 -10.5 78 0.0 33 12   101.36   -13 LegendNANA
17:00 -7.2 -10.7 76 0.0 1 6   101.31   -10 LegendNANA
18:00 -6.8 -10.0 78 0.0 28 6   101.29   -10 LegendNANA
19:00 -7.0 -9.6 82 0.2 2 2   101.25   -8 LegendNANA
20:00 -6.8 -9.0 84 0.0 1 2   101.19   -8 LegendNANA
21:00 -6.4 -8.2 87 0.0 0 1   101.13   -7 LegendNANA
22:00 -6.3 -7.8 89 0.0 5 2   101.08   -7 LegendNANA
23:00 -5.3 -7.7 83 0.0 33 17   101.06   -11 LegendNANA

Notes on Data Quality.

Legend

  • E = Estimated
  • M = Missing
  • NA = Not Available*
  • [empty] = Indicates an unobserved value
Date modified: